Weather in Novoye

Russia / Sakhalin District     48°53′07″N   142°56′35″E
temp.,
°C
wind,
m/s
gust,
m/s
humid.,
%
clouds,
%
prec.,
mm/h
press.,
hPa
HPBL,
m
18 may, tue
tue1823:00+6s57824 0.0 100466
02:00+6ssw33810 0.0 100522
05:00+6ssw11820 0.0 100513
08:00+8s33711 0.0 100542
11:00+10s67570 0.0 1005295
14:00+14ssw79480 0.0 1004450
17:00+14ssw710470 0.0 1004285
20:00+12sw610521 0.0 1004210
19 may, wed
wed1923:00+11ssw6105328 0.0 1005188
02:00+11ssw6105430 0.0 1005173
05:00+11ssw711554 0.0 1004165
08:00+10ssw46624 0.0 1005124
11:00+13ssw711530 0.0 1004255
14:00+14ssw91252100 0.0 1003308
17:00+14ssw812500 0.0 1003258
20:00+12ssw6760100 0.0 100666
20 may, thu
thu2023:00+9ssw4479100 0.4 100725
02:00+9w33789 0.0 100917
05:00+6nne56891 0.2 101189
08:00+5nne239023 0.0 1013117
11:00+6e218872 0.0 1012237
14:00+7sse578570 0.1 1009228
17:00+10s797832 0.1 1006283
20:00+9ssw6785100 0.0 100553
21 may, fri
fri2123:00+9ssw4487100 0.9 100546
02:00+9ssw3391100 0.3 100437
05:00+9wsw33914 0.3 100332
08:00+10wsw12845 0.0 100348
11:00+11e437744 0.0 1004103
14:00+8ese548571 0.1 1004183
17:00+8se448268 0.2 1004161
20:00+8e228668 0.1 100548
22 may, sat
sat2223:00+5n229698 0.2 101067
02:00+4wsw239294 0.0 101254
05:00+6sse117990 0.0 101212
08:00+7s117853 0.0 101455
11:00+7sse43765 0.0 1013250
14:00+7sse4477100 0.0 1013253
17:00+6s4579100 0.0 1014200
20:00+6s2383100 0.0 101487